TIME,DELAY(SENSOR),PRES,OXYGEN,RAWTEMP,T(OPTODE),TCPHASE,FLUOR,BETA(BETA700),BETA(BETA412),BETA(BETA440),CDOM,C(CSC),ED(ED411.90),ED(ED443.80),ED(ED489.40),ED(ED554.70),LU(LU412.20),LU(LU443.80),LU(LU489.40),LU(LU555.00),COMP,TILTX,TILTY,CHECK
1341790868,5804,857.6699829101562000,178.8686981201172000,472.6220092773437500,8.7347135543823240,39.3694305419921900,51,105,101,78,75,15454,2147445942,2147794532,2147581568,2147823936,2147303433,2147447835,2147752603,2148273161,1641,6,14,32120
1341794464,5803,9.3000001907348630,220.3569030761718800,535.6646118164062000,6.7592740058898930,37.9030990600585940,51,107,102,79,76,15448,2147437202,2147800950,2147586797,2147835574,2147304886,2147443574,2147764928,2148280109,1067,6,15,57313
1341798064,5807,989.0000000000000000,233.5131072998047000,547.6412963867188000,6.3807601928710940,37.4062004089355500,50,106,103,79,77,15446,2147431085,2147798921,2147588480,2147835776,2147304475,2147446436,2147773805,2148281645,59,6,14,52616
1341801664,5805,8.3000001907348630,234.8833007812500000,549.5172729492188000,6.3213691711425780,37.3683395385742200,51,106,103,79,75,15441,2147428617,2147801609,2147587766,2147837641,2147303936,2147444242,2147771721,2148281636,3126,6,15,35653
1341805264,5801,9.5000000000000000,237.0608978271484400,550.5510253906250000,6.2886347770690920,37.2735710144043000,51,105,105,78,75,15443,2147427977,2147800356,2147589293,2147834432,2147303936,2147448603,2147767762,2148280685,2714,6,15,12317
1341808864,5801,9.6999998092651370,237.1282043457031200,550.6597900390625000,6.2851867675781250,37.2719993591308600,51,109,103,78,77,15436,2147433426,2147801344,2147586852,2147836196,2147305417,2147442953,2147765988,2148280118,196,6,15,443
1341812464,5806,10.5000000000000000,237.4373931884765600,550.4436035156250000,6.2920341491699220,37.2523002624511700,51,116,104,78,77,15436,2147435309,2147801389,2147587373,2147834962,2147305060,2147443510,2147768502,2148278957,210,6,15,34997
1341816064,5804,10.8999996185302730,235.7733001708984400,548.9556884765625000,6.3391528129577640,37.3113288879394500,51,110,101,78,76,15437,2147432310,2147800786,2147586880,2147836160,2147307117,2147447149,2147766747,2148283858,2819,6,15,15369
1341819664,5806,10.8999996185302730,235.4869995117187500,550.3709716796875000,6.2943329811096190,37.3524589538574200,52,111,103,79,76,15436,2147430592,2147798765,2147585718,2147836205,2147305764,2147451739,2147766107,2148280118,329,6,15,62
1341823264,5803,1085.0000000000000000,236.2474975585937500,550.4829101562500000,6.2907910346984860,37.3145103454589840,51,106,103,79,75,15428,2147434825,2147804598,2147589056,2147836187,2147307501,2147448118,2147771776,2148280018,478,6,14,61740
1341826864,5803,10.8000001907348630,237.2723999023437500,550.5947265625000000,6.2872509956359860,37.2632904052734400,51,107,103,78,76,15428,2147430427,2147800484,2147589485,2147835995,2147308022,2147443190,2147768658,2148283894,3264,6,15,60585
1341830464,5801,10.0000000000000000,236.7897949218750000,550.5178833007812000,6.2896800041198730,37.2872505187988300,51,133,104,79,77,15420,2147429165,2147799094,2147586752,2147833636,2147304594,2147446217,2147770870,2148278345,3400,6,15,46678
1341834064,5799,1005.0000000000000000,237.0901031494140600,550.6414794921875000,6.2857670783996580,37.2737388610839840,51,113,102,79,76,15428,2147428854,2147800621,2147587456,2147835812,2147303533,2147442889,2147766893,2148282724,331,6,15,55813
1341837664,5804,1063.0000000000000000,236.6795043945312500,551.0999755859375000,6.2712440490722660,37.3036384582519500,50,108,103,79,76,15427,2147430765,2147799616,2147587593,2147837814,2147303533,2147447725,2147770669,2148278006,452,6,14,32839
1341841264,5803,1059.0000000000000000,238.1298980712890600,552.5836181640625000,6.2242369651794430,37.2552604675293000,51,108,103,79,77,15429,2147432905,2147801170,2147586185,2147835904,2147301970,2147446409,2147772827,2148280676,3578,6,15,16991
1341844864,5804,1038.0000000000000000,239.3069000244140600,553.2376708984375000,6.2035059928894040,37.2063789367675800,51,106,103,79,78,15431,2147427858,2147804763,2147586697,2147835062,2147304256,2147445723,2147766774,2148281426,3340,6,15,27387
1341848464,5806,1097.0000000000000000,238.9705963134765600,552.8640136718750000,6.2153491973876950,37.2173500061035160,51,106,103,78,77,15428,2147428480,2147802925,2147584868,2147832292,2147307154,2147444224,2147767451,2148277997,319,6,14,23029
1341852064,5803,11.3999996185302730,237.5644989013672000,552.4644165039062000,6.2280120849609375,37.2820510864257800,51,108,103,79,76,15424,2147429476,2147801792,2147588690,2147837001,2147308196,2147446994,2147766482,2148280301,3242,6,15,42486
1341855664,5806,1092.0000000000000000,238.4649047851562500,553.4788818359375000,6.1958618164062500,37.2540016174316400,51,108,106,78,75,15426,2147433664,2147801444,2147583478,2147834093,2147304713,2147443684,2147768640,2148281545,3548,6,15,59700
1341859264,5805,10.5000000000000000,237.8871002197265600,551.3931274414062000,6.2619590759277340,37.2460784912109400,50,107,103,79,76,15378,2147430912,2147801453,2147587474,2147834459,2147304384,2147445577,2147768896,2148282276,160,6,15,33945
1341862864,5806,11.1999998092651370,237.1374969482422000,551.5585937500000000,6.2567157745361330,37.2881011962890600,51,107,102,79,76,15402,2147432246,2147798601,2147586587,2147835620,2147302747,2147447533,2147769316,2148279753,389,6,15,51711
1341866464,5804,1129.0000000000000000,237.8428039550781200,552.7536010742188000,6.2188491821289060,37.2728996276855500,50,108,103,79,76,15355,2147433316,2147800493,2147590811,2147838006,2147306066,2147446555,2147771364,2148284288,406,6,15,35570
1341870064,5807,11.8999996185302730,237.1038970947265600,552.2432861328125000,6.2350220680236820,37.3018798828125000,51,106,104,79,76,15353,2147432054,2147801947,2147587373,2147838628,2147305261,2147446445,2147770377,2148282852,60,6,14,271
1341873664,5806,10.1000003814697270,237.6150054931640600,552.7297973632812000,6.2196030616760250,37.2842483520507800,51,111,103,79,75,15354,2147431798,2147803099,2147591488,2147837001,2147306285,2147444553,2147767460,2148282596,100,6,15,62359
1341877264,5799,1076.0000000000000000,235.9008026123047000,552.9636840820312000,6.2121911048889160,37.3778114318847660,51,108,104,80,77,15354,2147429065,2147799798,2147584173,2147838436,2147307209,2147442002,2147770221,2148284397,3442,6,15,17584
1341880864,5807,1127.0000000000000000,236.0422058105468800,553.6201171875000000,6.1913847923278810,37.3822517395019500,51,108,104,77,76,15348,2147432832,2147803026,2147588406,2147836937,2147304749,2147444726,2147770020,2148283922,79,6,14,58797
1341884464,5804,1064.0000000000000000,236.9512023925781200,554.3286743164062000,6.1689209938049320,37.3483314514160160,51,106,102,85,77,15326,2147432539,2147800704,2147586230,2147835648,2147306852,2147444187,2147771437,2148284873,321,6,14,6802
1341888064,5806,10.0000000000000000,237.7778930664062500,554.1254882812500000,6.1753640174865720,37.3017616271972660,51,106,103,78,77,15310,2147434422,2147797732,2147586870,2147834093,2147305801,2147447204,2147769792,2148286272,701,6,15,36927
1341891664,5807,11.8000001907348630,237.9931030273437500,554.0703125000000000,6.1771159172058105,37.2893104553222660,51,106,105,79,77,15302,2147428644,2147800704,2147588608,2147833929,2147304201,2147448411,2147767945,2148282395,105,6,15,29142
1341895264,5803,11.0000000000000000,238.6569061279297000,553.9923706054688000,6.1795849800109860,37.2537498474121100,51,106,103,78,76,15297,2147431350,2147800036,2147584182,2147835437,2147304676,2147443922,2147772653,2148285778,3524,6,15,1194
1341898864,5806,11.3999996185302730,239.6786041259765600,553.9890136718750000,6.1796908378601070,37.2017097473144500,50,105,103,79,76,15290,2147434752,2147800557,2147586944,2147834660,2147305718,2147448768,2147771364,2148280356,60,6,14,33706
1341902464,5800,1051.0000000000000000,238.5173950195312500,554.4733886718750000,6.1643347740173340,37.2698593139648440,51,111,103,79,76,15298,2147432832,2147801042,2147586843,2147833572,2147309394,2147444114,2147769892,2148283739,3414,6,15,14893
1341906064,5802,11.1999998092651370,239.5242004394531200,554.0698852539062000,6.1771278381347660,37.2104606628418000,51,107,102,78,77,15252,2147434825,2147797558,2147587090,2147834624,2147305261,2147446637,2147767442,2148283008,3043,6,15,4144
1341909664,5804,1001.0000000000000000,237.4017028808593800,552.4406738281250000,6.2287640571594240,37.2907295227050800,51,109,103,78,77,15320,2147429622,2147799954,2147587017,2147834569,2147303497,2147449398,2147769654,2148282185,3387,6,15,26543
1341913264,5804,11.6999998092651370,237.7001037597656200,552.8469848632812000,6.2158870697021480,37.2818107604980500,51,108,105,77,76,15320,2147432512,2147801005,2147588598,2147835117,2147304338,2147447405,2147771812,2148282221,2817,6,15,30812
1341916864,5805,1042.0000000000000000,238.1047973632812500,552.3322753906250000,6.2322010993957520,37.2518081665039060,51,111,102,78,76,15318,2147429321,2147801819,2147587245,2147833170,2147303277,2147445805,2147770368,2148282093,3493,6,15,41137
1341920464,5809,1164.0000000000000000,237.8825073242187500,553.3629150390625000,6.1995391845703125,37.2818107604980500,51,108,104,79,77,15314,2147428297,2147801773,2147587593,2147834541,2147304466,2147448484,2147770834,2148283108,21,6,14,25072
1341924064,5804,1095.0000000000000000,239.8247070312500000,553.2863769531250000,6.2019619941711430,37.1815109252929700,51,106,102,78,76,15317,2147429632,2147798052,2147587940,2147833673,2147303899,2147444196,2147771382,2148282185,404,6,15,62114
1341927664,5806,11.8999996185302730,238.4015960693359400,552.6832885742188000,6.2210769653320310,37.2431907653808600,51,107,105,77,77,15312,2147431881,2147799780,2147588306,2147832603,2147304356,2147442907,2147768850,2148283282,165,6,15,36867
1341928255,5802,1218.0000000000000000,237.8710021972656200,552.9274902343750000,6.2133369445800780,37.2752113342285160,51,109,104,79,76,15312,2147431872,2147796717,2147587291,2147836754,2147305353,2147442962,2147768813,2148284105,3049,6,15,33388
